Austin, MN

4:16 AM CDT on April 24, 2018 (GMT -0500)
Austin Municipal

Weather History for KAUM - October, 2013

Change the Weather History Date:

Monday, October 28, 2013

  Actual Average Record
Temperature  
Mean Temperature 38 °F -  
Max Temperature 44 °F 50 °F 71 °F (2016)
Min Temperature 32 °F 35 °F 21 °F (2008)
Degree Days  
Heating Degree Days 27    
Moisture  
Dew Point 29 °F    
Average Humidity 71    
Maximum Humidity 93    
Minimum Humidity 53    
Precipitation  
Precipitation 0.00 in - - ()
Sea Level Pressure  
Sea Level Pressure 30.27 in    
Wind  
Wind Speed 10 mph (ENE)    
Max Wind Speed 16 mph    
Max Gust Speed 24 mph    
Visibility 10 miles    
Events      
Averages and records for this station are not official NWS values.
T = Trace of Precipitation, MM = Missing Value Source: NWS Daily Summary

Daily Weather History Graph

Daily Weather History Graph

Search for Another Location

Airport or City:

Astronomy

Oct. 28, 2013 Rise Set
Actual Time 7:42 AM CDT 6:07 PM CDT
Civil Twilight 7:13 AM CDT 6:37 PM CDT
Nautical Twilight 6:39 AM CDT 7:10 PM CDT
Astronomical Twilight 6:06 AM CDT 7:44 PM CDT
Moon 1:25 AM CDT (10/28) 2:59 PM CDT (10/28)
Length of Visible Light 11h 24m
Length of Day
10h 25m
Waning Crescent, 34% of the Moon is Illuminated
Oct 28
Waning Crescent
Nov 3
New
Nov 9
First Quarter
Nov 17
Full
Nov 25
Last Quarter

Hourly Weather History & Observations

Time (CDT) Temp. Windchill Dew Point Humidity Pressure Visibility Wind Dir Wind Speed Gust Speed Precip Events Conditions
12:01 AM 41.0 °F 35.8 °F 32.0 °F 70% 30.04 in 10.0 mi NE 8.1 mph - N/A   Clear
12:21 AM 39.2 °F 33.0 °F 30.2 °F 70% 30.05 in 10.0 mi NE 9.2 mph - N/A   Clear
12:41 AM 39.2 °F 34.2 °F 30.2 °F 70% 30.06 in 10.0 mi NNE 6.9 mph - N/A   Clear
1:01 AM 39.2 °F 32.5 °F 30.2 °F 70% 30.06 in 10.0 mi NNE 10.4 mph - N/A   Clear
1:21 AM 39.2 °F 33.0 °F 30.2 °F 70% 30.08 in 10.0 mi NNE 9.2 mph - N/A   Clear
1:41 AM 37.4 °F 30.3 °F 30.2 °F 75% 30.08 in 10.0 mi NNE 10.4 mph - N/A   Clear
2:01 AM 37.4 °F 29.3 °F 30.2 °F 75% 30.09 in 10.0 mi NE 12.7 mph 16.1 mph N/A   Clear
2:21 AM 37.4 °F 30.3 °F 30.2 °F 75% 30.10 in 10.0 mi NE 10.4 mph - N/A   Clear
2:41 AM 37.4 °F 29.8 °F 30.2 °F 75% 30.12 in 10.0 mi NE 11.5 mph 16.1 mph N/A   Clear
3:01 AM 37.4 °F 30.3 °F 30.2 °F 75% 30.13 in 10.0 mi NE 10.4 mph - N/A   Clear
3:21 AM 37.4 °F 30.3 °F 30.2 °F 75% 30.14 in 10.0 mi NE 10.4 mph - N/A   Clear
3:41 AM 37.4 °F 30.3 °F 30.2 °F 75% 30.14 in 10.0 mi NE 10.4 mph 17.3 mph N/A   Clear
4:01 AM 35.6 °F 28.6 °F 30.2 °F 81% 30.15 in 10.0 mi NNE 9.2 mph - N/A   Clear
4:21 AM 35.6 °F 28.6 °F 30.2 °F 81% 30.16 in 10.0 mi NE 9.2 mph - N/A   Clear
4:41 AM 35.6 °F 27.5 °F 30.2 °F 81% 30.17 in 10.0 mi NE 11.5 mph 16.1 mph N/A   Clear
5:01 AM 35.6 °F 28.0 °F 30.2 °F 81% 30.17 in 10.0 mi NE 10.4 mph - N/A   Clear
5:21 AM 35.6 °F 29.9 °F 30.2 °F 81% 30.19 in 10.0 mi NE 6.9 mph 16.1 mph N/A   Clear
5:41 AM 33.8 °F 27.0 °F 30.2 °F 87% 30.20 in 10.0 mi NE 8.1 mph - N/A   Clear
6:01 AM 33.8 °F 25.8 °F 30.2 °F 87% 30.22 in 10.0 mi NE 10.4 mph 17.3 mph N/A   Clear
6:21 AM 33.8 °F 27.0 °F 30.2 °F 87% 30.22 in 10.0 mi NE 8.1 mph - N/A   Clear
6:41 AM 33.8 °F 25.8 °F 30.2 °F 87% 30.24 in 10.0 mi NE 10.4 mph - N/A   Clear
7:01 AM 33.8 °F 26.4 °F 30.2 °F 87% 30.25 in 10.0 mi NE 9.2 mph - N/A   Clear
7:21 AM 33.8 °F 26.4 °F 30.2 °F 87% 30.26 in 10.0 mi NE 9.2 mph - N/A   Clear
7:41 AM 32.0 °F 25.6 °F 30.2 °F 93% 30.27 in 10.0 mi NNE 6.9 mph - N/A   Clear
8:01 AM 32.0 °F 24.8 °F 30.2 °F 93% 30.28 in 10.0 mi NE 8.1 mph - N/A   Scattered Clouds
8:21 AM 33.8 °F 27.0 °F 30.2 °F 87% 30.30 in 10.0 mi NE 8.1 mph - N/A   Overcast
8:41 AM 35.6 °F 27.5 °F 30.2 °F 81% 30.31 in 10.0 mi NE 11.5 mph - N/A   Overcast
9:01 AM 35.6 °F 27.5 °F 30.2 °F 81% 30.31 in 10.0 mi ENE 11.5 mph 16.1 mph N/A   Overcast
9:21 AM 35.6 °F 26.6 °F 30.2 °F 81% 30.32 in 10.0 mi ENE 13.8 mph 20.7 mph N/A   Mostly Cloudy
9:41 AM 37.4 °F 28.9 °F 28.4 °F 70% 30.33 in 10.0 mi ENE 13.8 mph 23.0 mph N/A   Mostly Cloudy
10:01 AM 37.4 °F 28.2 °F 28.4 °F 70% 30.33 in 10.0 mi ENE 16.1 mph 21.9 mph N/A   Overcast
10:41 AM 37.4 °F 28.2 °F 28.4 °F 70% 30.34 in 10.0 mi East 16.1 mph 20.7 mph N/A   Overcast
11:01 AM 37.4 °F 28.2 °F 28.4 °F 70% 30.34 in 10.0 mi ENE 16.1 mph 23.0 mph N/A   Mostly Cloudy
11:21 AM 39.2 °F 30.8 °F 28.4 °F 65% 30.34 in 10.0 mi East 15.0 mph - N/A   Scattered Clouds
11:41 AM 39.2 °F 30.5 °F 26.6 °F 61% 30.34 in 10.0 mi East 16.1 mph 24.2 mph N/A   Clear
12:01 PM 39.2 °F 30.5 °F 28.4 °F 65% 30.34 in 10.0 mi ENE 16.1 mph 23.0 mph N/A   Clear
12:21 PM 41.0 °F 33.9 °F 28.4 °F 61% 30.35 in 10.0 mi East 12.7 mph - N/A   Clear
12:41 PM 42.8 °F 36.6 °F 28.4 °F 57% 30.35 in 10.0 mi ENE 11.5 mph 18.4 mph N/A   Clear
1:01 PM 42.8 °F 37.0 °F 26.6 °F 53% 30.34 in 10.0 mi East 10.4 mph 19.6 mph N/A   Clear
1:21 PM 42.8 °F 36.6 °F 28.4 °F 57% 30.33 in 10.0 mi ENE 11.5 mph - N/A   Clear
1:41 PM 42.8 °F 35.8 °F 28.4 °F 57% 30.33 in 10.0 mi ENE 13.8 mph - N/A   Clear
2:01 PM 44.6 °F 38.8 °F 28.4 °F 53% 30.32 in 10.0 mi ENE 11.5 mph 17.3 mph N/A   Clear
2:21 PM 44.6 °F 39.2 °F 28.4 °F 53% 30.32 in 10.0 mi ENE 10.4 mph - N/A   Clear
2:41 PM 44.6 °F 39.7 °F 28.4 °F 53% 30.32 in 10.0 mi East 9.2 mph - N/A   Clear
3:01 PM 42.8 °F 36.2 °F 28.4 °F 57% 30.32 in 10.0 mi ENE 12.7 mph 16.1 mph N/A   Clear
3:21 PM 41.0 °F 34.7 °F 28.4 °F 61% 30.33 in 10.0 mi ENE 10.4 mph - N/A   Clear
3:41 PM 41.0 °F 35.2 °F 28.4 °F 61% 30.33 in 10.0 mi ENE 9.2 mph - N/A   Clear
4:01 PM 41.0 °F 34.3 °F 28.4 °F 61% 30.33 in 10.0 mi ENE 11.5 mph - N/A   Clear
4:21 PM 41.0 °F 33.9 °F 28.4 °F 61% 30.32 in 10.0 mi ENE 12.7 mph 17.3 mph N/A   Clear
4:41 PM 41.0 °F 34.7 °F 28.4 °F 61% 30.33 in 10.0 mi NE 10.4 mph - N/A   Clear
5:01 PM 41.0 °F 34.7 °F 28.4 °F 61% 30.33 in 10.0 mi East 10.4 mph - N/A   Scattered Clouds
5:21 PM 39.2 °F 31.2 °F 28.4 °F 65% 30.33 in 10.0 mi East 13.8 mph - N/A   Scattered Clouds
5:41 PM 39.2 °F 33.6 °F 28.4 °F 65% 30.33 in 10.0 mi East 8.1 mph - N/A   Mostly Cloudy
6:01 PM 39.2 °F 33.6 °F 28.4 °F 65% 30.33 in 10.0 mi East 8.1 mph - N/A   Mostly Cloudy
6:21 PM 39.2 °F 33.6 °F 28.4 °F 65% 30.33 in 10.0 mi East 8.1 mph - N/A   Mostly Cloudy
6:41 PM 37.4 °F 32.1 °F 28.4 °F 70% 30.34 in 10.0 mi East 6.9 mph - N/A   Scattered Clouds
7:13 PM 35.6 °F 31.7 °F 28.4 °F 75% 30.34 in 10.0 mi ENE 4.6 mph - N/A   Clear
7:28 PM 35.6 °F 31.7 °F 28.4 °F 75% 30.35 in 10.0 mi NE 4.6 mph - N/A   Mostly Cloudy
7:41 PM 37.4 °F 33.8 °F 28.4 °F 70% 30.35 in 10.0 mi ENE 4.6 mph - N/A   Overcast
8:01 PM 37.4 °F 32.8 °F 28.4 °F 70% 30.34 in 10.0 mi ENE 5.8 mph - N/A   Overcast
8:21 PM 37.4 °F 32.8 °F 28.4 °F 70% 30.35 in 10.0 mi ENE 5.8 mph - N/A   Overcast
8:41 PM 37.4 °F 31.4 °F 28.4 °F 70% 30.34 in 10.0 mi ENE 8.1 mph - N/A   Overcast
9:01 PM 37.4 °F 32.8 °F 28.4 °F 70% 30.35 in 10.0 mi East 5.8 mph - N/A   Overcast
9:37 PM 37.4 °F 32.8 °F 28.4 °F 70% 30.35 in 10.0 mi East 5.8 mph - N/A   Overcast
9:41 PM 37.4 °F 31.4 °F 28.4 °F 70% 30.35 in 10.0 mi East 8.1 mph - N/A   Overcast
10:01 PM 37.4 °F 30.3 °F 28.4 °F 70% 30.34 in 10.0 mi East 10.4 mph - N/A   Overcast
10:21 PM 37.4 °F 30.3 °F 26.6 °F 65% 30.34 in 10.0 mi East 10.4 mph - N/A   Overcast
10:52 PM 37.4 °F 30.8 °F 26.6 °F 65% 30.34 in 10.0 mi East 9.2 mph - N/A   Scattered Clouds
11:12 PM 37.4 °F 31.4 °F 26.6 °F 65% 30.34 in 10.0 mi East 8.1 mph - N/A   Clear
11:33 PM 37.4 °F 32.1 °F 28.4 °F 70% 30.35 in 10.0 mi ESE 6.9 mph - N/A   Scattered Clouds
11:41 PM 37.4 °F 32.8 °F 28.4 °F 70% 30.34 in 10.0 mi East 5.8 mph - N/A   Mostly Cloudy